Location: Unspecified
(19.4326°N, 99.1332°W)
Time: 19:07:56
(UTC-06:00)

Hubble Space Telescope - Visible Passes

Search period start: 17 November 2017 00:00
Search period end: 27 November 2017 00:00
Orbit: 537 x 541 km, 28.5° (Epoch: 17 November)

Date Brightness Start Highest point End Pass type
(mag) Time Alt. Az. Time Alt. Az. Time Alt. Az.
17 Nov 1.1 05:13:30 50° N 05:13:30 50° N 05:17:16 10° ENE visible
18 Nov 1.9 05:04:12 33° NNE 05:04:12 33° NNE 05:07:00 10° NE visible
19 Nov 2.6 04:54:49 23° NE 04:54:49 23° NE 04:56:45 10° NE visible
20 Nov 3.2 04:45:22 16° NE 04:45:22 16° NE 04:46:29 10° NE visible
20 Nov 2.4 06:21:22 10° NW 06:24:37 22° N 06:27:54 10° NE visible
21 Nov 3.6 04:35:52 12° NE 04:35:52 12° NE 04:36:15 10° NE visible
21 Nov 2.3 06:11:15 10° NW 06:14:33 23° N 06:17:51 10° ENE visible
22 Nov 2.3 06:01:41 13° NW 06:04:29 24° N 06:07:51 10° ENE visible
23 Nov 2.2 05:52:07 16° NW 05:54:23 26° N 05:57:52 10° ENE visible
24 Nov 2.0 05:42:32 21° NNW 05:44:17 29° N 05:47:54 10° ENE visible
25 Nov 1.8 05:32:57 28° NNW 05:34:10 33° NNE 05:37:55 10° E visible
26 Nov 1.5 05:23:23 37° N 05:24:02 40° NNE 05:27:54 10° E visible
